TimeEDT,TemperatureF,Dew PointF,Humidity,Sea Level PressureIn,VisibilityMPH,Wind Direction,Wind SpeedMPH,Gust SpeedMPH,PrecipitationIn,Events,Conditions,WindDirDegrees,DateUTC
12:01 AM,62.6,60.8,94,29.71,10.0,West,3.5,-,0.00,Rain,Light Rain,270,2013-09-22 04:01:00
12:27 AM,62.6,60.8,94,29.71,10.0,WSW,3.5,-,0.00,,Overcast,240,2013-09-22 04:27:00
12:54 AM,62.1,60.1,93,29.72,10.0,WNW,5.8,-,0.00,,Overcast,290,2013-09-22 04:54:00
1:54 AM,61.0,60.1,97,29.72,10.0,NW,5.8,-,N/A,,Mostly Cloudy,310,2013-09-22 05:54:00
2:54 AM,61.0,59.0,93,29.72,10.0,West,4.6,-,N/A,,Overcast,280,2013-09-22 06:54:00
3:44 AM,60.8,57.2,88,29.72,10.0,Calm,Calm,-,N/A,,Mostly Cloudy,0,2013-09-22 07:44:00
3:54 AM,60.1,57.9,93,29.73,10.0,WNW,3.5,-,N/A,,Scattered Clouds,290,2013-09-22 07:54:00
4:54 AM,59.0,57.0,93,29.75,10.0,WNW,6.9,-,N/A,,Clear,290,2013-09-22 08:54:00
5:54 AM,55.0,54.0,96,29.77,6.0,NNW,3.5,-,N/A,,Clear,330,2013-09-22 09:54:00
6:54 AM,55.0,52.0,89,29.79,10.0,NW,8.1,-,N/A,,Clear,310,2013-09-22 10:54:00
7:54 AM,57.9,53.1,84,29.81,10.0,NNW,4.6,-,N/A,,Clear,330,2013-09-22 11:54:00
8:54 AM,61.0,52.0,72,29.83,10.0,NW,6.9,-,N/A,,Clear,320,2013-09-22 12:54:00
9:54 AM,63.0,48.9,60,29.85,10.0,NNW,13.8,-,N/A,,Clear,330,2013-09-22 13:54:00
10:54 AM,64.9,48.9,56,29.85,10.0,NW,10.4,-,N/A,,Partly Cloudy,320,2013-09-22 14:54:00
11:54 AM,64.0,44.1,48,29.85,10.0,NNW,15.0,24.2,N/A,,Scattered Clouds,340,2013-09-22 15:54:00
12:54 PM,66.0,45.0,47,29.85,10.0,NW,11.5,-,N/A,,Mostly Cloudy,320,2013-09-22 16:54:00
1:54 PM,64.9,45.0,48,29.84,10.0,NNW,15.0,21.9,N/A,,Overcast,330,2013-09-22 17:54:00
2:54 PM,64.9,45.0,48,29.83,10.0,NW,10.4,19.6,N/A,,Overcast,320,2013-09-22 18:54:00
3:54 PM,66.9,45.0,45,29.83,10.0,NNW,10.4,-,N/A,,Mostly Cloudy,330,2013-09-22 19:54:00
4:54 PM,64.9,44.1,47,29.84,10.0,NNW,12.7,21.9,N/A,,Overcast,330,2013-09-22 20:54:00
5:54 PM,64.0,43.0,46,29.86,10.0,NNW,10.4,-,N/A,,Mostly Cloudy,340,2013-09-22 21:54:00
6:54 PM,62.1,45.0,53,29.87,10.0,North,8.1,-,N/A,,Overcast,350,2013-09-22 22:54:00
7:54 PM,57.9,44.1,60,29.90,10.0,North,6.9,-,N/A,,Clear,350,2013-09-22 23:54:00
8:54 PM,57.0,43.0,59,29.92,10.0,North,5.8,-,N/A,,Clear,10,2013-09-23 00:54:00
9:54 PM,53.1,44.1,71,29.94,10.0,NW,5.8,-,N/A,,Clear,320,2013-09-23 01:54:00
10:54 PM,55.0,44.1,67,29.96,10.0,NNW,5.8,-,N/A,,Mostly Cloudy,340,2013-09-23 02:54:00
11:54 PM,55.9,41.0,57,29.97,10.0,NNW,8.1,-,N/A,,Overcast,340,2013-09-23 03:54:00